Location: Bats
(43.6587°N, 0.4584°W)
Time: 21:13:31
(UTC+00:00)

Daily predictions for brighter satellites

Satellite Brightness Start Highest point End
(mag) Time Altitude Azimuth Time Altitude Azimuth Time Altitude Azimuth
Cosmos 2074 Rocket 4.3 17:07:08 10° N 17:13:25 79° W 17:19:37 10° S
Cosmos 1500 Rocket 4.1 17:12:45 10° NNW 17:17:09 66° W 17:21:32 10° S
Cosmos 304 Rocket 3.9 17:12:44 10° NNW 17:17:24 53° ENE 17:22:02 10° SE
Meteor 2-10 Rocket 4.4 17:12:32 10° NNW 17:18:04 63° W 17:23:44 10° S
Cosmos 1953 3.7 17:16:33 10° NNE 17:18:53 16° ENE 17:21:13 10° ESE
Cosmos 676 Rocket 4.5 17:16:40 10° N 17:21:29 37° ENE 17:26:17 10° SE
BREEZE M DEB (TANK) 2.0 17:22:38 10° NW 17:24:40 49° NNE 17:27:49 10° ESE
SL-16 R/B 3.1 17:19:11 10° N 17:25:15 61° WNW 17:31:17 10° SSW
Cosmos 2369 Rocket 2.2 17:24:15 10° NNW 17:30:00 78° ENE 17:35:40 10° SSE
YAOGAN 1 3.8 17:27:00 10° ESE 17:30:09 21° ENE 17:33:18 10° NNE
Cosmos 1484 Rocket 4.1 17:27:29 10° S 17:30:38 38° W 17:33:46 10° NNW
Cosmos 1943 3.4 17:29:33 10° S 17:34:59 54° ESE 17:40:30 10° NNE
Cosmos 2297 3.7 17:30:18 10° NNW 17:35:58 82° ENE 17:41:39 10° SSE
Landsat 7 3.8 17:31:59 10° SSE 17:36:38 90° ENE 17:41:19 10° NNW
NOSS 3-4 (A) 4.0 17:32:43 10° S 17:37:10 29° ESE 17:41:28 12° ENE
NOSS 3-4 (C) 4.1 17:32:52 10° S 17:37:18 28° ESE 17:41:36 12° ENE
NOSS 3-2 (C) 4.2 17:29:57 10° NW 17:37:28 84° NE 17:46:27 10° SE
Cosmos 1758 3.8 17:34:51 10° NNW 17:38:26 57° W 17:42:01 10° S
Cosmos 1241 Rocket 4.4 17:35:13 10° NNW 17:41:27 87° ENE 17:47:40 10° SSE
Cosmos 2263 4.1 17:36:25 10° NNW 17:42:08 74° ENE 17:47:45 10° SSE
SMAP 3.5 17:37:57 10° S 17:42:34 68° WSW 17:47:13 10° NNW
SJ 16-02 1.2 17:38:24 10° NNW 17:42:42 83° ENE 17:46:58 10° SSE
USA 276 4.0 17:43:06 10° SE 17:43:39 10° SE 17:44:12 10° ESE
Cosmos 1470 Rocket 4.0 17:42:18 10° N 17:46:21 38° ENE 17:50:24 10° SE
UNK 4.2 17:44:17 10° N 17:48:44 60° WNW 17:53:10 10° SSW
ATLAS 3B R/B 4.5 17:45:53 10° W 17:52:14 27° NNW 17:58:45 10° NNE
Cosmos 2251 Rocket 4.0 17:47:21 10° NNW 17:52:35 65° WSW 17:57:44 10° S
SL-16 R/B 3.3 17:47:50 10° SW 17:53:12 42° WNW 17:58:35 10° NNE
Cosmos 2218 Rocket 4.1 17:47:01 10° N 17:53:19 56° ENE 17:59:33 10° SSE
Cosmos 2366 rocket 4.1 17:47:05 10° N 17:53:22 60° E 17:59:37 10° SSE
PSLV R/B 4.4 17:51:03 10° ESE 17:54:29 26° ENE 17:57:56 10° N
Cosmos 1703 3.4 17:52:06 10° SSE 17:55:10 36° E 17:57:38 14° NNE
ERS-1 4.4 17:53:06 10° SSE 17:58:03 89° WSW 18:03:03 10° NNW
Meteor 1-21 4.4 17:53:23 10° SSE 17:58:44 47° E 18:04:05 10° NNE
NOSS 2-3 (E) 4.3 17:54:10 10° NNW 17:59:24 69° NE 18:06:32 10° SE
SJ-12 4.1 17:56:16 10° S 18:00:03 69° WSW 18:03:52 10° NNW
OPS 8737 4.3 18:00:41 10° NNW 18:03:40 48° NE 18:05:46 18° ESE
Cosmos 2341 Rocket 4.0 17:57:57 10° N 18:04:18 78° E 18:10:35 10° SSE
BREEZE-M DEB (TANK) 2.6 18:02:47 10° SW 18:05:03 53° SE 18:06:55 24° ENE
SJ-6F 4.5 18:03:07 10° S 18:07:10 81° WSW 18:11:15 10° NNW
DNEPR-1 R/B 4.3 18:05:59 10° S 18:10:06 33° ESE 18:11:37 25° ENE
Meteor 1-15 Rocket 4.3 18:04:10 10° N 18:10:08 86° E 18:16:01 10° S
Cosmos 2056 Rocket 4.0 18:05:29 10° SSW 18:10:34 61° WNW 18:15:39 10° NNE
ATLAS 5 CENTAUR R/B 1.2 18:08:19 10° SW 18:11:13 51° NW 18:13:00 21° NNE
BREEZE-M DEB (TANK) 2.9 18:09:35 10° NW 18:11:48 29° NNE 18:11:59 29° NNE
ARIANE 5 R/B 3.4 18:08:16 10° S 18:13:20 54° W 18:18:28 10° NNW
Meteor 1-16 Rocket 4.2 18:08:52 10° N 18:14:04 52° ENE 18:19:16 10° SSE
USA 215 3.3 18:10:46 18° NE 18:15:45 69° SE 18:22:15 10° SW
CZ-4 R/B 4.3 18:12:48 10° SSE 18:16:46 84° W 18:20:45 10° NNW
Nadezhda 3 Rocket 4.4 18:14:59 10° SSE 18:20:32 37° E 18:26:06 10° NNE
SJ-7 4.2 18:18:53 10° SSE 18:22:36 57° ENE 18:26:20 10° N
Cosmos 1633 Rocket 3.9 18:19:41 10° NNW 18:23:52 51° W 18:28:02 10° S
Cosmos 1959 Rocket 4.4 18:18:15 10° N 18:24:24 88° E 18:30:33 10° S
ISS -3.2 18:21:56 10° SSW 18:25:06 41° SE 18:25:24 40° SE
Resurs 1-3 3.4 18:22:20 10° SSE 18:26:38 80° ENE 18:30:57 10° N
Meteor 2-13 Rocket 4.4 18:21:37 10° S 18:27:41 66° E 18:33:48 10° NNE
Cosmos 292 Rocket 4.2 18:28:04 10° N 18:32:17 36° ENE 18:32:17 36° ENE
BREEZE-M DEB (TANK) 2.7 18:30:23 10° WSW 18:33:14 81° NNW 18:36:26 29° ENE
CARTOSAT-1 3.5 18:30:06 10° SSE 18:34:10 53° ENE 18:38:17 10° N
Cosmos 1656 4.2 18:31:29 10° N 18:36:37 35° NE 18:36:54 35° ENE
SKYMED 2 4.3 18:34:46 10° N 18:39:01 53° WNW 18:43:13 10° SSW
CZ-2D R/B 3.6 18:38:06 10° S 18:41:57 67° WSW 18:45:47 10° NNW
SPOT 1/Viking Rocket 4.5 18:37:56 10° S 18:42:56 49° W 18:47:55 10° NNW
SL-4 R/B 3.1 18:41:28 10° WNW 18:45:08 38° SW 18:47:15 20° SSE
USA 238 DEB 3.9 18:40:38 10° NW 18:48:08 80° NE 18:56:16 10° SE
USA 238 3.9 18:40:44 10° NW 18:48:14 79° NE 18:56:23 10° SE
COSMO-SKYMED 1 2.7 18:45:34 18° N 18:48:35 66° WNW 18:52:38 10° SSW
USA 267 3.3 18:46:12 35° E 18:48:54 58° NNE 18:55:17 10° NW
YAOGAN 3 4.3 18:45:35 10° SSE 18:49:46 71° ENE 18:53:59 10° N
Cosmos 1741 Rocket 3.8 18:44:44 10° NNW 18:49:59 79° ENE 18:55:10 10° SSE
Cosmos 968 Rocket 3.6 18:45:15 10° NNW 18:50:24 72° WSW 18:55:28 10° S
BREEZE-M DEB (TANK) 3.7 18:46:33 10° WNW 18:50:41 38° N 18:50:58 38° NNE
Resurs 01 Rocket 1.8 18:53:13 51° NNE 18:53:13 51° NNE 18:56:42 10° N
Cosmos 1603 3.8 18:46:58 10° SSW 18:52:38 77° WNW 18:56:03 25° NNE
Cosmos 1953 3.8 18:50:42 10° NNW 18:54:04 34° W 18:57:25 10° SSW
Cosmos 1331 Rocket 4.1 18:49:11 10° SSW 18:54:17 70° WNW 18:57:24 24° NNE
Cosmos 1850 Rocket 4.0 18:53:51 10° NNW 18:59:10 83° WSW 19:04:28 10° SSE
Okean 2 3.5 18:57:45 10° SSW 19:01:35 64° W 19:02:03 57° NW
Cosmos 1302 Rocket 4.0 18:57:02 10° S 19:01:58 59° ESE 19:01:58 59° ESE
Cosmos 332 Rocket 4.3 18:58:51 10° NNW 19:03:33 58° WSW 19:08:14 10° S
RESURS DK-1 3.6 19:00:26 10° SSW 19:02:34 30° S 19:02:34 30° S
NOAA 6 4.2 18:59:25 10° S 19:04:29 71° WSW 19:09:36 10° NNW
YAOGAN 1 3.9 19:01:46 10° SSW 19:05:44 38° W 19:09:43 10° NNW
Cosmos 1833 Rocket 4.5 19:03:53 10° SSE 19:05:14 17° SSE 19:05:14 17° SSE
SL-08 R/B 4.4 19:08:24 10° N 19:14:53 80° E 19:21:21 10° S
Cosmos 1452 Rocket 3.9 19:11:10 10° SSW 19:16:19 60° WNW 19:18:18 36° N
Cosmos 1339 Rocket 4.3 19:17:04 10° S 19:23:17 85° E 19:25:09 48° NNE
NOSS 3-4 (A) 3.9 19:22:34 10° WSW 19:27:38 45° NW 19:28:55 39° N
NOSS 3-4 (C) 3.9 19:22:40 10° WSW 19:27:46 46° NW 19:29:04 39° N
USA 215 3.9 19:58:06 45° NNW 19:58:34 45° NNW 20:04:43 10° W
USA 267 4.3 20:33:34 41° W 20:33:34 41° W 20:38:17 10° WNW
